This demonstration page uses our WeatherBlox Daily Observations layout. Learn more.

Left ArrowRight Arrow

39.12711, -84.51439

Hourly Observations for January 11, 2018

Temp ( °F °C ) Dew Point ( °F °C ) Humidity (%) Winds ( mph kmh ) Pressure ( in mb ) Visibility ( mi km ) Precip ( " mm )
12:53 am 00:53 Cloudy 59 15 50 10 72 72 S 10 17 30.03 1017 10 16 N/A
1:53 am 01:53 Cloudy 59 15 50 10 72 72 S 13 20 30.02 1017 10 16 N/A
2:53 am 02:53 Cloudy 59 15 50 10 72 72 S 10 17 30.03 1017 10 16 N/A
3:53 am 03:53 Cloudy 57 13.9 50 10 78 78 S 7 11 30.04 1017 10 16 N/A
4:53 am 04:53 Cloudy 58 14.4 50 10 75 75 S 8 13 30.04 1017 10 16 N/A
5:53 am 05:53 Cloudy 57 13.9 50 10 78 78 S 13 20 30.05 1018 10 16 N/A
6:53 am 06:53 Cloudy 56 13.3 51 10.6 84 84 S 8 13 30.06 1018 10 16 N/A
7:53 am 07:53 Cloudy 54 12.2 50 10 87 87 S 12 19 30.05 1018 10 16 N/A
8:39 am 08:39 Cloudy with Heavy Rain 53 11.7 52 11.1 96 96 S 10 17 30.06 1018 2 3 0.05 1.27
8:53 am 08:53 Cloudy with Light Rain 53 11.7 52 11.1 96 96 SSW 7 11 30.06 1018 3 5 0.09 2.29
9:23 am 09:23 Cloudy with Light Rain 52 11.1 52 11.1 100 100 N N/A 30.06 1018 5 8 0.01 0.25
9:43 am 09:43 Cloudy with Light Rain 53 11.7 52 11.1 96 96 ESE 3 6 30.06 1018 5 8 0.01 0.25
9:53 am 09:53 Cloudy with Light Rain 53 11.7 53 11.7 100 100 N N/A 30.04 1017 5 8 0.01 0.25
10:53 am 10:53 Cloudy with Light Rain 53 11.7 52 11.1 96 96 N N/A 30.04 1017 4 6 0.01 0.25
11:02 am 11:02 Cloudy with Light Rain 54 12.2 53 11.7 97 97 SSW 3 6 30.06 1018 2 3 0.01 0.25
11:27 am 11:27 Cloudy with Rain 53 11.7 53 11.7 100 100 N N/A 30.03 1017 2 3 0.11 2.79
11:53 am 11:53 Cloudy with Light Rain 54 12.2 54 12.2 100 100 N N/A 30.01 1016 2 3 0.14 3.56
12:08 pm 12:08 Cloudy with Light Rain 54 12.2 53 11.7 97 97 VRB 3 6 30.00 1016 2 3 N/A
12:15 pm 12:15 Cloudy with Mist and Fog 54 12.2 53 11.7 97 97 ESE 3 6 30.00 1016 3 5 N/A
12:53 pm 12:53 Cloudy with Mist and Fog 56 13.3 55 12.8 97 97 SW 5 7 29.96 1014 6 10 N/A
1:43 pm 13:43 Cloudy 56 13.3 55 12.8 97 97 N N/A 29.94 1014 10 16 N/A
1:53 pm 13:53 Cloudy 57 13.9 55 12.8 93 93 S 8 13 29.92 1013 10 16 N/A
2:39 pm 14:39 Cloudy 58 14.4 56 13.3 93 93 S 5 7 29.91 1013 10 16 N/A
2:53 pm 14:53 Cloudy with Light Rain 58 14.4 56 13.3 93 93 SSW 3 6 29.90 1012 9 14 N/A
3:53 pm 15:53 Cloudy 61 16.1 56 13.3 84 84 S 7 11 29.88 1012 10 16 N/A
4:53 pm 16:53 Mostly Cloudy 61 16.1 56 13.3 84 84 S 8 13 29.87 1012 10 16 N/A
5:53 pm 17:53 Cloudy 59 15 56 13.3 90 90 N N/A 29.87 1012 10 16 N/A
6:53 pm 18:53 Partly Cloudy 56 13.3 54 12.2 93 93 VRB 6 9 29.87 1011 10 16 N/A
7:53 pm 19:53 Partly Cloudy 58 14.4 56 13.3 93 93 S 10 17 29.87 1012 10 16 N/A
8:53 pm 20:53 Clear 57 13.9 55 12.8 93 93 S 7 11 29.84 1011 10 16 N/A
9:53 pm 21:53 Cloudy 55 12.8 55 12.8 100 100 SSW 6 9 29.82 1010 10 16 N/A
10:53 pm 22:53 Mostly Clear 56 13.3 55 12.8 97 97 S 8 13 29.79 1009 10 16 N/A
11:53 pm 23:53 Mostly Clear 53 11.7 53 11.7 100 100 S 7 11 29.77 1008 10 16 N/A

Powered by AerisWeather